| time (UTC) | temp C | wind direction | speed KPH | gust KPH | rain 1hr cm | rain 24hr cm | rain mn cm | humidity % | barometer mb |
| 20260903233559 | 27 | 343 | 0.0 | 0.0 | 0.00 | 0.00 | 0.00 | 71 | 1017.7 |
| 20260903233054 | 27 | 343 | 0.0 | 0.0 | 0.00 | 0.00 | 0.00 | 70 | 1018.0 |
| 20260903232544 | 28 | 251 | 0.0 | 0.0 | 0.00 | 0.00 | 0.00 | 69 | 1018.0 |
| 20260903232039 | 28 | 251 | 0.0 | 0.0 | 0.00 | 0.00 | 0.00 | 69 | 1017.7 |
| 20260903231533 | 28 | 251 | 0.0 | 0.0 | 0.00 | 0.00 | 0.00 | 69 | 1017.9 |
| 20260903231027 | 28 | 251 | 0.0 | 0.0 | 0.00 | 0.00 | 0.00 | 69 | 1017.9 |
| 20260903230524 | 28 | 251 | 0.0 | 0.0 | 0.00 | 0.00 | 0.00 | 69 | 1017.8 |
| 20260903230022 | 28 | 185 | 0.0 | 0.0 | 0.00 | 0.00 | 0.00 | 68 | 1017.7 |
| 20260903225520 | 28 | 185 | 0.0 | 0.0 | 0.00 | 0.00 | 0.00 | 66 | 1017.7 |
| 20260903225016 | 28 | 185 | 0.0 | 0.0 | 0.00 | 0.00 | 0.00 | 66 | 1017.9 |
| 20260903224512 | 29 | 354 | 0.0 | 0.0 | 0.00 | 0.00 | 0.00 | 66 | 1017.9 |
| 20260903224008 | 29 | 354 | 0.0 | 0.0 | 0.00 | 0.00 | 0.00 | 66 | 1017.7 |
| 20260903223507 | 29 | 354 | 0.0 | 0.0 | 0.00 | 0.00 | 0.00 | 66 | 1017.9 |
| 20260903223007 | 29 | 354 | 0.0 | 0.0 | 0.00 | 0.00 | 0.00 | 65 | 1017.6 |
| 20260903222501 | 29 | 354 | 0.0 | 0.0 | 0.00 | 0.00 | 0.00 | 67 | 1017.6 |
| 20260903222000 | 29 | 341 | 0.0 | 0.0 | 0.00 | 0.00 | 0.00 | 66 | 1017.6 |
| 20260903221455 | 30 | 354 | 0.0 | 0.0 | 0.00 | 0.00 | 0.00 | 65 | 1017.6 |
| 20260903220952 | 30 | 354 | 0.0 | 0.0 | 0.00 | 0.00 | 0.00 | 65 | 1017.7 |
| 20260903220447 | 30 | 298 | 0.0 | 0.0 | 0.00 | 0.00 | 0.00 | 64 | 1017.3 |
| 20260903215944 | 30 | 263 | 0.0 | 0.0 | 0.00 | 0.00 | 0.00 | 64 | 1017.7 |
| 20260903215441 | 30 | 251 | 0.0 | 0.0 | 0.00 | 0.00 | 0.00 | 64 | 1017.8 |
| 20260903214939 | 30 | 226 | 0.0 | 0.0 | 0.00 | 0.00 | 0.00 | 63 | 1017.8 |
| 20260903214436 | 30 | 206 | 0.0 | 3.2 | 0.00 | 0.00 | 0.00 | 65 | 1017.6 |
| 20260903213935 | 30 | 131 | 0.0 | 1.6 | 0.00 | 0.00 | 0.00 | 62 | 1017.8 |
| 20260903213430 | 29 | 276 | 0.0 | 0.0 | 0.00 | 0.00 | 0.00 | 66 | 1018.0 |
| 20260903212926 | 29 | 58 | 0.0 | 0.0 | 0.00 | 0.00 | 0.00 | 65 | 1018.1 |
| 20260903212422 | 29 | 305 | 0.0 | 0.0 | 0.00 | 0.00 | 0.00 | 66 | 1017.9 |
| 20260903211921 | 29 | 276 | 0.0 | 0.0 | 0.00 | 0.00 | 0.00 | 65 | 1017.9 |
| 20260903211417 | 30 | 130 | 1.6 | 1.6 | 0.00 | 0.00 | 0.00 | 64 | 1018.2 |
| 20260903210914 | 30 | 6 | 0.0 | 0.0 | 0.00 | 0.00 | 0.00 | 62 | 1018.0 |
| 20260903210413 | 31 | 330 | 1.6 | 4.8 | 0.00 | 0.00 | 0.00 | 63 | 1018.3 |
| 20260903205908 | 31 | 239 | 0.0 | 0.0 | 0.00 | 0.00 | 0.00 | 65 | 1018.1 |
| 20260903205408 | 32 | 138 | 0.0 | 0.0 | 0.00 | 0.00 | 0.00 | 60 | 1018.3 |
| 20260903204902 | 32 | 138 | 0.0 | 0.0 | 0.00 | 0.00 | 0.00 | 60 | 1018.4 |
| 20260903204359 | 33 | 128 | 0.0 | 0.0 | 0.00 | 0.00 | 0.00 | 58 | 1018.3 |
| 20260903203854 | 32 | 181 | 0.0 | 0.0 | 0.00 | 0.00 | 0.00 | 61 | 1018.2 |
| 20260903203350 | 32 | 223 | 0.0 | 0.0 | 0.00 | 0.00 | 0.00 | 60 | 1018.4 |
| 20260903202848 | 32 | 354 | 0.0 | 0.0 | 0.00 | 0.00 | 0.00 | 62 | 1018.3 |
| 20260903202345 | 32 | 216 | 0.0 | 0.0 | 0.00 | 0.00 | 0.00 | 58 | 1018.4 |
| 20260903201845 | 32 | 263 | 0.0 | 0.0 | 0.00 | 0.00 | 0.00 | 58 | 1018.4 |
| 20260903201340 | 32 | 263 | 0.0 | 0.0 | 0.00 | 0.00 | 0.00 | 58 | 1018.7 |
| 20260903200839 | 32 | 263 | 0.0 | 0.0 | 0.00 | 0.00 | 0.00 | 58 | 1018.6 |
| 20260903200334 | 32 | 263 | 0.0 | 0.0 | 0.00 | 0.00 | 0.00 | 58 | 1018.5 |
| 20260903195829 | 33 | 168 | 0.0 | 0.0 | 0.00 | 0.00 | 0.00 | 52 | 1018.6 |
| 20260903195326 | 33 | 168 | 0.0 | 0.0 | 0.00 | 0.00 | 0.00 | 52 | 1018.4 |
| 20260903194820 | 33 | 168 | 0.0 | 0.0 | 0.00 | 0.00 | 0.00 | 52 | 1018.3 |
| 20260903194316 | 33 | 168 | 0.0 | 0.0 | 0.00 | 0.00 | 0.00 | 52 | 1018.6 |
| 20260903193812 | 33 | 168 | 0.0 | 0.0 | 0.00 | 0.00 | 0.00 | 52 | 1018.6 |
| 20260903193307 | 33 | 168 | 0.0 | 0.0 | 0.00 | 0.00 | 0.00 | 52 | 1018.1 |
| 20260903192802 | 33 | 168 | 0.0 | 0.0 | 0.00 | 0.00 | 0.00 | 52 | 1018.8 |
| 20260903192258 | 34 | 343 | 0.0 | 0.0 | 0.00 | 0.00 | 0.00 | 50 | 1018.7 |
| 20260903191754 | 36 | 248 | 0.0 | 1.6 | 0.00 | 0.00 | 0.00 | 46 | 1018.8 |
| 20260903191250 | 36 | 248 | 0.0 | 1.6 | 0.00 | 0.00 | 0.00 | 46 | 1019.0 |
| 20260903190744 | 36 | 248 | 0.0 | 1.6 | 0.00 | 0.00 | 0.00 | 46 | 1018.7 |
| 20260903190244 | 36 | 248 | 0.0 | 1.6 | 0.00 | 0.00 | 0.00 | 46 | 1019.2 |
| 20260903185739 | 36 | 248 | 0.0 | 1.6 | 0.00 | 0.00 | 0.00 | 46 | 1019.0 |
| 20260903185238 | 36 | 248 | 0.0 | 1.6 | 0.00 | 0.00 | 0.00 | 46 | 1019.1 |
| 20260903184735 | 36 | 248 | 0.0 | 1.6 | 0.00 | 0.00 | 0.00 | 46 | 1019.1 |
| 20260903184231 | 36 | 248 | 0.0 | 1.6 | 0.00 | 0.00 | 0.00 | 46 | 1019.4 |
| 20260903183726 | 36 | 255 | 0.0 | 1.6 | 0.00 | 0.00 | 0.00 | 48 | 1019.4 |
| 20260903183220 | 36 | 223 | 0.0 | 1.6 | 0.00 | 0.00 | 0.00 | 45 | 1019.5 |
| 20260903182719 | 35 | 263 | 0.0 | 3.2 | 0.00 | 0.00 | 0.00 | 53 | 1019.6 |
| 20260903182215 | 35 | 212 | 0.0 | 3.2 | 0.00 | 0.00 | 0.00 | 52 | 1019.6 |
| 20260903181713 | 35 | 76 | 1.6 | 3.2 | 0.00 | 0.00 | 0.00 | 48 | 1019.6 |
| 20260903181203 | 36 | 256 | 0.0 | 0.0 | 0.00 | 0.00 | 0.00 | 49 | 1019.8 |
| 20260903180659 | 36 | 248 | 1.6 | 1.6 | 0.00 | 0.00 | 0.00 | 47 | 1019.5 |
| 20260903180157 | 35 | 352 | 0.0 | 0.0 | 0.00 | 0.00 | 0.00 | 52 | 1019.7 |
| 20260903175657 | 35 | 14 | 0.0 | 3.2 | 0.00 | 0.00 | 0.00 | 50 | 1019.6 |
| 20260903175151 | 33 | 119 | 3.2 | 3.2 | 0.00 | 0.00 | 0.00 | 52 | 1019.7 |
| 20260903174651 | 33 | 119 | 3.2 | 3.2 | 0.00 | 0.00 | 0.00 | 52 | 1020.0 |
| 20260903174145 | 33 | 119 | 3.2 | 3.2 | 0.00 | 0.00 | 0.00 | 52 | 1020.0 |
| 20260903173641 | 33 | 77 | 3.2 | 3.2 | 0.00 | 0.00 | 0.00 | 53 | 1020.1 |
| 20260903173137 | 33 | 64 | 1.6 | 1.6 | 0.00 | 0.00 | 0.00 | 56 | 1020.0 |
| 20260903172637 | 33 | 64 | 1.6 | 3.2 | 0.00 | 0.00 | 0.00 | 56 | 1020.2 |
| 20260903172132 | 33 | 264 | 0.0 | 1.6 | 0.00 | 0.00 | 0.00 | 57 | 1020.1 |
| 20260903171632 | 33 | 135 | 3.2 | 3.2 | 0.00 | 0.00 | 0.00 | 57 | 1020.3 |
| 20260903171128 | 33 | 262 | 0.0 | 1.6 | 0.00 | 0.00 | 0.00 | 58 | 1020.5 |
| 20260903170627 | 32 | 77 | 3.2 | 3.2 | 0.00 | 0.00 | 0.00 | 58 | 1020.1 |
| 20260903170123 | 32 | 96 | 0.0 | 0.0 | 0.00 | 0.00 | 0.00 | 59 | 1020.4 |
| 20260903165620 | 31 | 283 | 3.2 | 3.2 | 0.00 | 0.00 | 0.00 | 63 | 1020.6 |
| 20260903165115 | 31 | 283 | 3.2 | 3.2 | 0.00 | 0.00 | 0.00 | 63 | 1020.7 |
| 20260903164610 | 31 | 230 | 0.0 | 1.6 | 0.00 | 0.00 | 0.00 | 62 | 1020.9 |
| 20260903164106 | 31 | 304 | 0.0 | 1.6 | 0.00 | 0.00 | 0.00 | 62 | 1020.6 |
| 20260903163600 | -17 | 0.0 | 0.0 | 0.00 | 0.00 | 0.00 | 1020.8 | ||
| 20260903163056 | -17 | 0.0 | 0.0 | 0.00 | 0.00 | 0.00 | 1020.8 | ||
| 20260903162552 | -17 | 0.0 | 0.0 | 0.00 | 0.00 | 0.00 | 1020.8 | ||
| 20260903162048 | 30 | 196 | 3.2 | 3.2 | 0.00 | 0.00 | 0.00 | 63 | 1020.7 |
| 20260903161543 | 30 | 196 | 3.2 | 3.2 | 0.00 | 0.00 | 0.00 | 63 | 1021.0 |
| 20260903161039 | 30 | 196 | 3.2 | 3.2 | 0.00 | 0.00 | 0.00 | 63 | 1021.0 |
| 20260903160539 | 30 | 196 | 3.2 | 3.2 | 0.00 | 0.00 | 0.00 | 63 | 1021.0 |
| 20260903160033 | 30 | 196 | 3.2 | 3.2 | 0.00 | 0.00 | 0.00 | 63 | 1021.0 |
| 20260903155532 | 30 | 196 | 3.2 | 3.2 | 0.00 | 0.00 | 0.00 | 63 | 1021.1 |
| 20260903155028 | 30 | 196 | 3.2 | 3.2 | 0.00 | 0.00 | 0.00 | 63 | 1021.1 |
| 20260903154524 | 30 | 196 | 3.2 | 3.2 | 0.00 | 0.00 | 0.00 | 63 | 1021.0 |
| 20260903154020 | 30 | 196 | 3.2 | 3.2 | 0.00 | 0.00 | 0.00 | 63 | 1020.8 |
| 20260903153515 | 30 | 196 | 3.2 | 3.2 | 0.00 | 0.00 | 0.00 | 63 | 1021.3 |
| 20260903153011 | 30 | 196 | 3.2 | 3.2 | 0.00 | 0.00 | 0.00 | 63 | 1021.5 |
| 20260903152507 | 30 | 196 | 3.2 | 3.2 | 0.00 | 0.00 | 0.00 | 63 | 1021.2 |
| 20260903152003 | 30 | 240 | 3.2 | 3.2 | 0.00 | 0.00 | 0.00 | 66 | 1021.4 |
| 20260903151502 | 29 | 280 | 0.0 | 1.6 | 0.00 | 0.00 | 0.00 | 65 | 1021.2 |
| 20260903150957 | 28 | 239 | 3.2 | 4.8 | 0.00 | 0.00 | 0.00 | 68 | 1021.2 |
| 20260903150456 | 28 | 353 | 1.6 | 3.2 | 0.00 | 0.00 | 0.00 | 68 | 1021.2 |
| 20260903145951 | 28 | 28 | 1.6 | 6.4 | 0.00 | 0.00 | 0.00 | 69 | 1021.3 |
| 20260903145446 | 28 | 252 | 3.2 | 3.2 | 0.00 | 0.00 | 0.00 | 72 | 1021.1 |
| 20260903144942 | 27 | 162 | 0.0 | 0.0 | 0.00 | 0.00 | 0.00 | 74 | 1021.2 |
| 20260903144441 | 27 | 274 | 3.2 | 3.2 | 0.00 | 0.00 | 0.00 | 75 | 1020.8 |
| 20260903143937 | 27 | 245 | 3.2 | 3.2 | 0.00 | 0.00 | 0.00 | 74 | 1021.2 |
| 20260903143433 | 27 | 180 | 1.6 | 6.4 | 0.00 | 0.00 | 0.00 | 73 | 1020.9 |
| 20260903142928 | 27 | 249 | 3.2 | 3.2 | 0.00 | 0.00 | 0.00 | 74 | 1020.9 |
| 20260903142424 | 27 | 129 | 1.6 | 4.8 | 0.00 | 0.00 | 0.00 | 72 | 1021.0 |
| 20260903141920 | 27 | 63 | 3.2 | 3.2 | 0.00 | 0.00 | 0.00 | 74 | 1021.0 |
| 20260903141415 | 27 | 278 | 0.0 | 0.0 | 0.00 | 0.00 | 0.00 | 74 | 1020.8 |
| 20260903140911 | 27 | 124 | 0.0 | 0.0 | 0.00 | 0.00 | 0.00 | 74 | 1021.0 |
| 20260903140407 | 27 | 304 | 0.0 | 0.0 | 0.00 | 0.00 | 0.00 | 75 | 1021.2 |
| 20260903135902 | 27 | 322 | 0.0 | 1.6 | 0.00 | 0.00 | 0.00 | 76 | 1021.0 |
| 20260903135357 | 27 | 298 | 1.6 | 1.6 | 0.00 | 0.00 | 0.00 | 75 | 1020.6 |
| 20260903134856 | 27 | 171 | 3.2 | 3.2 | 0.00 | 0.00 | 0.00 | 73 | 1020.8 |
| 20260903134351 | 27 | 320 | 0.0 | 0.0 | 0.00 | 0.00 | 0.00 | 72 | 1020.7 |
| 20260903133849 | 27 | 151 | 0.0 | 0.0 | 0.00 | 0.00 | 0.00 | 73 | 1020.7 |
| 20260903133345 | 27 | 266 | 0.0 | 1.6 | 0.00 | 0.00 | 0.00 | 74 | 1020.4 |
| 20260903132839 | 27 | 263 | 0.0 | 0.0 | 0.00 | 0.00 | 0.00 | 75 | 1020.6 |
| 20260903132335 | 26 | 84 | 0.0 | 1.6 | 0.00 | 0.00 | 0.00 | 74 | 1020.5 |
| 20260903131830 | 26 | 238 | 0.0 | 0.0 | 0.00 | 0.00 | 0.00 | 76 | 1020.6 |
| 20260903131330 | 26 | 336 | 0.0 | 0.0 | 0.00 | 0.00 | 0.00 | 77 | 1020.5 |
| 20260903130829 | 26 | 336 | 0.0 | 0.0 | 0.00 | 0.00 | 0.00 | 77 | 1020.6 |
| 20260903130324 | 26 | 336 | 0.0 | 0.0 | 0.00 | 0.00 | 0.00 | 77 | 1020.5 |
| 20260903125822 | 26 | 273 | 0.0 | 1.6 | 0.00 | 0.00 | 0.00 | 77 | 1020.9 |
| 20260903125318 | 26 | 311 | 0.0 | 0.0 | 0.00 | 0.00 | 0.00 | 77 | 1021.0 |
| 20260903124817 | 26 | 97 | 0.0 | 1.6 | 0.00 | 0.00 | 0.00 | 80 | 1020.8 |
| 20260903124313 | 25 | 261 | 0.0 | 1.6 | 0.00 | 0.00 | 0.00 | 83 | 1021.1 |
| 20260903123811 | 24 | 290 | 0.0 | 1.6 | 0.00 | 0.00 | 0.00 | 86 | 1021.1 |
| 20260903123311 | 23 | 212 | 0.0 | 1.6 | 0.00 | 0.00 | 0.00 | 87 | 1020.9 |
| 20260903122809 | 23 | 36 | 0.0 | 0.0 | 0.00 | 0.00 | 0.00 | 88 | 1021.0 |
| 20260903122306 | 23 | 326 | 0.0 | 0.0 | 0.00 | 0.00 | 0.00 | 87 | 1020.8 |
| 20260903121802 | 23 | 294 | 0.0 | 0.0 | 0.00 | 0.00 | 0.00 | 87 | 1020.8 |
| 20260903121253 | 23 | 330 | 0.0 | 0.0 | 0.00 | 0.00 | 0.00 | 88 | 1021.0 |
| 20260903120749 | 23 | 251 | 0.0 | 1.6 | 0.00 | 0.00 | 0.00 | 89 | 1020.9 |
| 20260903120247 | 23 | 258 | 0.0 | 0.0 | 0.00 | 0.00 | 0.00 | 89 | 1021.0 |
| 20260903115747 | 22 | 281 | 0.0 | 0.0 | 0.00 | 0.00 | 0.00 | 91 | 1020.9 |
| 20260903115242 | 22 | 281 | 0.0 | 0.0 | 0.00 | 0.00 | 0.00 | 91 | 1020.9 |
| 20260903114742 | 22 | 238 | 0.0 | 0.0 | 0.00 | 0.00 | 0.00 | 91 | 1020.8 |
| 20260903114238 | 22 | 251 | 0.0 | 0.0 | 0.00 | 0.00 | 0.00 | 91 | 1020.7 |
| 20260903113732 | 22 | 330 | 0.0 | 0.0 | 0.00 | 0.00 | 0.00 | 91 | 1020.8 |
| 20260903113229 | 22 | 251 | 0.0 | 0.0 | 0.00 | 0.00 | 0.00 | 91 | 1020.7 |
| 20260903112724 | 22 | 185 | 0.0 | 0.0 | 0.00 | 0.00 | 0.00 | 92 | 1020.7 |
| 20260903112220 | 22 | 239 | 0.0 | 0.0 | 0.00 | 0.00 | 0.00 | 92 | 1020.4 |
| 20260903111719 | 22 | 290 | 0.0 | 0.0 | 0.00 | 0.00 | 0.00 | 92 | 1020.3 |
| 20260903111214 | 22 | 138 | 0.0 | 0.0 | 0.00 | 0.00 | 0.00 | 92 | 1020.4 |
| 20260903110710 | 21 | 318 | 0.0 | 0.0 | 0.00 | 0.00 | 0.00 | 92 | 1020.3 |
| 20260903110206 | 21 | 318 | 0.0 | 0.0 | 0.00 | 0.00 | 0.00 | 92 | 1020.0 |
| 20260903105705 | 21 | 201 | 0.0 | 0.0 | 0.00 | 0.00 | 0.00 | 92 | 1020.0 |
| 20260903105200 | 21 | 238 | 0.0 | 0.0 | 0.00 | 0.00 | 0.00 | 92 | 1020.5 |
| 20260903104700 | 21 | 110 | 0.0 | 0.0 | 0.00 | 0.00 | 0.00 | 92 | 1020.1 |
| 20260903104155 | 21 | 110 | 0.0 | 0.0 | 0.00 | 0.00 | 0.00 | 92 | 1020.1 |
| 20260903103651 | 21 | 223 | 0.0 | 0.0 | 0.00 | 0.00 | 0.00 | 91 | 1020.1 |
| 20260903103147 | 21 | 323 | 0.0 | 1.6 | 0.00 | 0.00 | 0.00 | 91 | 1020.1 |
| 20260903102642 | 21 | 330 | 0.0 | 0.0 | 0.00 | 0.00 | 0.00 | 91 | 1020.2 |
| 20260903102142 | 21 | 134 | 0.0 | 0.0 | 0.00 | 0.00 | 0.00 | 91 | 1020.0 |
| 20260903101641 | 21 | 290 | 0.0 | 0.0 | 0.00 | 0.00 | 0.00 | 91 | 1019.9 |
| 20260903101137 | 21 | 138 | 0.0 | 0.0 | 0.00 | 0.00 | 0.00 | 91 | 1020.2 |
| 20260903100631 | 21 | 251 | 0.0 | 1.6 | 0.00 | 0.00 | 0.00 | 91 | 1019.9 |
| 20260903100131 | 21 | 250 | 0.0 | 0.0 | 0.00 | 0.00 | 0.00 | 91 | 1020.0 |
| 20260903095628 | 21 | 289 | 0.0 | 1.6 | 0.00 | 0.00 | 0.00 | 91 | 1020.0 |
| 20260903095128 | 21 | 303 | 0.0 | 1.6 | 0.00 | 0.00 | 0.00 | 91 | 1020.0 |
| 20260903094623 | 22 | 320 | 0.0 | 1.6 | 0.00 | 0.00 | 0.00 | 91 | 1020.3 |
| 20260903094119 | 22 | 336 | 0.0 | 0.0 | 0.00 | 0.00 | 0.00 | 91 | 1019.9 |
| 20260903093614 | 22 | 223 | 0.0 | 1.6 | 0.00 | 0.00 | 0.00 | 91 | 1020.1 |
| 20260903093109 | 22 | 4 | 0.0 | 0.0 | 0.00 | 0.00 | 0.00 | 90 | 1020.0 |
| 20260903092608 | 22 | 163 | 0.0 | 1.6 | 0.00 | 0.00 | 0.00 | 90 | 1020.0 |
| 20260903092103 | 22 | 168 | 0.0 | 0.0 | 0.00 | 0.00 | 0.00 | 90 | 1020.1 |
| 20260903091602 | 22 | 251 | 0.0 | 1.6 | 0.00 | 0.00 | 0.00 | 90 | 1020.0 |
| 20260903091056 | 22 | 163 | 0.0 | 0.0 | 0.00 | 0.00 | 0.00 | 90 | 1020.0 |
| 20260903090552 | 22 | 284 | 0.0 | 1.6 | 0.00 | 0.00 | 0.00 | 89 | 1020.2 |
| 20260903090051 | 22 | 245 | 0.0 | 1.6 | 0.00 | 0.00 | 0.00 | 89 | 1020.1 |
| 20260903085549 | 22 | 58 | 0.0 | 0.0 | 0.00 | 0.00 | 0.00 | 89 | 1019.9 |
| 20260903085045 | 22 | 110 | 0.0 | 1.6 | 0.00 | 0.00 | 0.00 | 89 | 1020.0 |
| 20260903084543 | 22 | 245 | 0.0 | 0.0 | 0.00 | 0.00 | 0.00 | 89 | 1020.0 |
| 20260903084038 | 22 | 244 | 0.0 | 1.6 | 0.00 | 0.00 | 0.00 | 89 | 1019.8 |
| 20260903083534 | 22 | 178 | 0.0 | 0.0 | 0.00 | 0.00 | 0.00 | 89 | 1019.6 |
| 20260903083034 | 22 | 263 | 0.0 | 0.0 | 0.00 | 0.00 | 0.00 | 89 | 1019.8 |
| 20260903082528 | 22 | 138 | 0.0 | 1.6 | 0.00 | 0.00 | 0.00 | 89 | 1019.8 |
| 20260903082023 | 22 | 194 | 0.0 | 0.0 | 0.00 | 0.00 | 0.00 | 89 | 1019.7 |
| 20260903081519 | 22 | 318 | 0.0 | 1.6 | 0.00 | 0.00 | 0.00 | 89 | 1019.8 |
| 20260903081015 | 22 | 321 | 0.0 | 0.0 | 0.00 | 0.00 | 0.00 | 89 | 1019.8 |
| 20260903080511 | 22 | 233 | 0.0 | 0.0 | 0.00 | 0.00 | 0.00 | 88 | 1019.7 |
| 20260903080008 | 22 | 240 | 0.0 | 3.2 | 0.00 | 0.00 | 0.00 | 89 | 1019.8 |
| 20260903075502 | 22 | 251 | 0.0 | 0.0 | 0.00 | 0.00 | 0.00 | 89 | 1019.6 |
| 20260903074957 | 22 | 251 | 0.0 | 0.0 | 0.00 | 0.00 | 0.00 | 89 | 1019.6 |
| 20260903074456 | 22 | 336 | 0.0 | 0.0 | 0.00 | 0.00 | 0.00 | 89 | 1019.8 |
| 20260903073951 | 22 | 336 | 0.0 | 0.0 | 0.00 | 0.00 | 0.00 | 89 | 1019.8 |
| 20260903073446 | 22 | 238 | 0.0 | 0.0 | 0.00 | 0.00 | 0.00 | 89 | 1019.5 |
| 20260903072942 | 22 | 238 | 0.0 | 0.0 | 0.00 | 0.00 | 0.00 | 89 | 1019.5 |
| 20260903072438 | 22 | 238 | 0.0 | 0.0 | 0.00 | 0.00 | 0.00 | 88 | 1019.7 |
| 20260903071935 | 22 | 238 | 0.0 | 0.0 | 0.00 | 0.00 | 0.00 | 88 | 1019.5 |
| 20260903071430 | 22 | 150 | 0.0 | 0.0 | 0.00 | 0.00 | 0.00 | 88 | 1019.8 |
| 20260903070926 | 22 | 150 | 0.0 | 0.0 | 0.00 | 0.00 | 0.00 | 87 | 1019.9 |
| 20260903070420 | 22 | 330 | 0.0 | 0.0 | 0.00 | 0.00 | 0.00 | 87 | 1019.9 |
| 20260903065915 | 22 | 330 | 0.0 | 0.0 | 0.00 | 0.00 | 0.00 | 87 | 1019.8 |
| 20260903065414 | 22 | 330 | 0.0 | 0.0 | 0.00 | 0.00 | 0.00 | 87 | 1019.9 |
| 20260903064914 | 22 | 330 | 0.0 | 0.0 | 0.00 | 0.00 | 0.00 | 87 | 1020.1 |
| 20260903064409 | 22 | 330 | 0.0 | 0.0 | 0.00 | 0.00 | 0.00 | 87 | 1020.0 |
| 20260903063906 | 22 | 330 | 0.0 | 0.0 | 0.00 | 0.00 | 0.00 | 87 | 1020.0 |
| 20260903063401 | 22 | 330 | 0.0 | 0.0 | 0.00 | 0.00 | 0.00 | 87 | 1020.2 |
| 20260903062856 | 22 | 330 | 0.0 | 0.0 | 0.00 | 0.00 | 0.00 | 87 | 1020.1 |
| 20260903062355 | 22 | 330 | 0.0 | 0.0 | 0.00 | 0.00 | 0.00 | 87 | 1019.9 |
| 20260903061852 | 22 | 343 | 0.0 | 0.0 | 0.00 | 0.00 | 0.00 | 87 | 1019.9 |
| 20260903061351 | 22 | 330 | 0.0 | 0.0 | 0.00 | 0.00 | 0.00 | 87 | 1020.1 |
| 20260903060847 | 22 | 330 | 0.0 | 0.0 | 0.00 | 0.00 | 0.00 | 87 | 1020.0 |
| 20260903060346 | 22 | 330 | 0.0 | 0.0 | 0.00 | 0.00 | 0.00 | 87 | 1019.9 |
| 20260903055844 | 22 | 330 | 0.0 | 0.0 | 0.00 | 0.00 | 0.00 | 87 | 1020.4 |
| 20260903055343 | 22 | 178 | 0.0 | 0.0 | 0.00 | 0.00 | 0.00 | 87 | 1020.1 |
| 20260903054838 | 22 | 216 | 0.0 | 0.0 | 0.00 | 0.00 | 0.00 | 86 | 1020.1 |
| 20260903054338 | 22 | 216 | 0.0 | 0.0 | 0.00 | 0.00 | 0.00 | 86 | 1020.2 |
| 20260903053835 | 22 | 216 | 0.0 | 0.0 | 0.00 | 0.00 | 0.00 | 87 | 1020.3 |
| 20260903053329 | 22 | 216 | 0.0 | 0.0 | 0.00 | 0.00 | 0.00 | 87 | 1020.3 |
| 20260903052825 | 22 | 216 | 0.0 | 0.0 | 0.00 | 0.00 | 0.00 | 87 | 1020.4 |
| 20260903052320 | 22 | 216 | 0.0 | 0.0 | 0.00 | 0.00 | 0.00 | 87 | 1020.5 |
| 20260903051816 | 22 | 216 | 0.0 | 0.0 | 0.00 | 0.00 | 0.00 | 87 | 1020.5 |
| 20260903051311 | 22 | 216 | 0.0 | 0.0 | 0.00 | 0.00 | 0.00 | 87 | 1020.7 |
| 20260903050806 | 22 | 216 | 0.0 | 0.0 | 0.00 | 0.00 | 0.00 | 87 | 1020.5 |
| 20260903050305 | 22 | 216 | 0.0 | 0.0 | 0.00 | 0.00 | 0.00 | 87 | 1020.5 |
| 20260903045800 | 22 | 216 | 0.0 | 0.0 | 0.00 | 0.00 | 0.00 | 87 | 1020.6 |
| 20260903045256 | 22 | 318 | 0.0 | 0.0 | 0.00 | 0.00 | 0.00 | 87 | 1020.8 |
| 20260903044752 | 22 | 238 | 0.0 | 0.0 | 0.00 | 0.00 | 0.00 | 87 | 1020.5 |
| 20260903044247 | 23 | 238 | 0.0 | 0.0 | 0.00 | 0.00 | 0.00 | 86 | 1020.6 |
| 20260903043744 | 23 | 263 | 0.0 | 1.6 | 0.00 | 0.00 | 0.00 | 86 | 1020.9 |
| 20260903043244 | 23 | 263 | 0.0 | 0.0 | 0.00 | 0.00 | 0.00 | 85 | 1020.7 |
| 20260903042743 | 23 | 263 | 0.0 | 0.0 | 0.00 | 0.00 | 0.00 | 85 | 1020.6 |
| 20260903042238 | 23 | 263 | 0.0 | 0.0 | 0.00 | 0.00 | 0.00 | 84 | 1020.8 |
| 20260903041734 | 23 | 87 | 0.0 | 0.0 | 0.00 | 0.00 | 0.00 | 83 | 1020.6 |
| 20260903041231 | 23 | 87 | 0.0 | 0.0 | 0.00 | 0.00 | 0.00 | 83 | 1020.2 |
| 20260903040730 | 23 | 314 | 0.0 | 0.0 | 0.00 | 0.00 | 0.00 | 83 | 1020.4 |
| 20260903040225 | 23 | 314 | 0.0 | 0.0 | 0.00 | 0.00 | 0.00 | 83 | 1020.3 |
| 20260903035721 | 23 | 343 | 0.0 | 0.0 | 0.00 | 0.00 | 0.00 | 84 | 1020.4 |
| 20260903035217 | 23 | 343 | 0.0 | 0.0 | 0.00 | 0.00 | 0.00 | 84 | 1020.4 |
| 20260903034717 | 23 | 175 | 0.0 | 0.0 | 0.00 | 0.00 | 0.00 | 83 | 1020.6 |
| 20260903034212 | 23 | 175 | 0.0 | 0.0 | 0.00 | 0.00 | 0.00 | 83 | 1020.5 |
| 20260903033708 | 23 | 175 | 0.0 | 0.0 | 0.00 | 0.00 | 0.00 | 82 | 1020.6 |
| 20260903033208 | 23 | 233 | 0.0 | 0.0 | 0.00 | 0.00 | 0.00 | 82 | 1020.4 |
| 20260903032702 | 23 | 354 | 0.0 | 0.0 | 0.00 | 0.00 | 0.00 | 82 | 1020.6 |
| 20260903032158 | 23 | 354 | 0.0 | 0.0 | 0.00 | 0.00 | 0.00 | 82 | 1020.6 |
| 20260903031654 | 23 | 354 | 0.0 | 0.0 | 0.00 | 0.00 | 0.00 | 83 | 1020.6 |
| 20260903031153 | 23 | 207 | 0.0 | 0.0 | 0.00 | 0.00 | 0.00 | 83 | 1020.4 |
| 20260903030649 | 23 | 207 | 0.0 | 0.0 | 0.00 | 0.00 | 0.00 | 83 | 1020.8 |
| 20260903030144 | 23 | 207 | 0.0 | 0.0 | 0.00 | 0.00 | 0.00 | 83 | 1020.7 |
| 20260903025640 | 23 | 207 | 0.0 | 0.0 | 0.00 | 0.00 | 0.00 | 83 | 1020.8 |
| 20260903025135 | 23 | 207 | 0.0 | 0.0 | 0.00 | 0.00 | 0.00 | 83 | 1020.7 |
| 20260903024630 | 23 | 207 | 0.0 | 0.0 | 0.00 | 0.00 | 0.00 | 84 | 1021.0 |
| 20260903024129 | 23 | 207 | 0.0 | 0.0 | 0.00 | 0.00 | 0.00 | 83 | 1020.8 |
| 20260903023625 | 23 | 207 | 0.0 | 0.0 | 0.00 | 0.00 | 0.00 | 83 | 1020.9 |
| 20260903023125 | 23 | 214 | 0.0 | 0.0 | 0.00 | 0.00 | 0.00 | 83 | 1021.3 |
| 20260903022621 | 23 | 263 | 0.0 | 0.0 | 0.00 | 0.00 | 0.00 | 83 | 1021.1 |
| 20260903022120 | 23 | 263 | 0.0 | 0.0 | 0.00 | 0.00 | 0.00 | 83 | 1021.3 |
| 20260903021619 | 23 | 263 | 0.0 | 0.0 | 0.00 | 0.00 | 0.00 | 84 | 1021.1 |
| 20260903021114 | 23 | 238 | 0.0 | 0.0 | 0.00 | 0.00 | 0.00 | 84 | 1021.3 |
| 20260903020610 | 23 | 238 | 0.0 | 0.0 | 0.00 | 0.00 | 0.00 | 84 | 1021.2 |
| 20260903020110 | -17 | 0.0 | 0.0 | 0.00 | 0.00 | 0.00 | 1021.5 | ||
| 20260903015605 | -17 | 0.0 | 0.0 | 0.00 | 0.00 | 0.00 | 1021.6 | ||
| 20260903015101 | 24 | 134 | 0.0 | 0.0 | 0.00 | 0.00 | 0.00 | 78 | 1021.6 |
| 20260903014600 | 24 | 134 | 0.0 | 0.0 | 0.00 | 0.00 | 0.00 | 78 | 1021.7 |
| 20260903014100 | 24 | 134 | 0.0 | 0.0 | 0.00 | 0.00 | 0.00 | 78 | 1021.5 |
| 20260903013555 | 24 | 134 | 0.0 | 0.0 | 0.00 | 0.00 | 0.00 | 78 | 1021.3 |
| 20260903013050 | 24 | 134 | 0.0 | 0.0 | 0.00 | 0.00 | 0.00 | 78 | 1021.4 |
| 20260903012549 | 24 | 134 | 0.0 | 0.0 | 0.00 | 0.00 | 0.00 | 78 | 1021.4 |
| 20260903012048 | 24 | 134 | 0.0 | 0.0 | 0.00 | 0.00 | 0.00 | 78 | 1021.4 |
| 20260903011543 | 24 | 134 | 0.0 | 0.0 | 0.00 | 0.00 | 0.00 | 78 | 1021.2 |
| 20260903011037 | 24 | 134 | 0.0 | 0.0 | 0.00 | 0.00 | 0.00 | 78 | 1021.4 |
| 20260903010533 | 24 | 134 | 0.0 | 0.0 | 0.00 | 0.00 | 0.00 | 78 | 1021.5 |
| 20260903010031 | 24 | 134 | 0.0 | 0.0 | 0.00 | 0.00 | 0.00 | 78 | 1021.3 |
| 20260903005531 | 24 | 134 | 0.0 | 0.0 | 0.00 | 0.00 | 0.00 | 78 | 1021.4 |
| 20260903005027 | 24 | 71 | 0.0 | 1.6 | 0.00 | 0.00 | 0.00 | 78 | 1021.1 |
| 20260903004526 | 25 | 233 | 0.0 | 1.6 | 0.00 | 0.00 | 0.00 | 78 | 1021.2 |
| 20260903004022 | 25 | 69 | 0.0 | 0.0 | 0.00 | 0.00 | 0.00 | 78 | 1021.3 |
| 20260903003517 | 25 | 49 | 0.0 | 0.0 | 0.00 | 0.00 | 0.00 | 77 | 1021.0 |
| 20260903003013 | 25 | 330 | 0.0 | 1.6 | 0.00 | 0.00 | 0.00 | 78 | 1020.8 |
| 20260903002512 | 25 | 292 | 0.0 | 0.0 | 0.00 | 0.00 | 0.00 | 77 | 1020.9 |
| 20260903002008 | 25 | 121 | 1.6 | 1.6 | 0.00 | 0.00 | 0.00 | 76 | 1020.7 |
| 20260903001508 | 25 | 256 | 0.0 | 1.6 | 0.00 | 0.00 | 0.00 | 75 | 1020.6 |
| 20260903001007 | 25 | 150 | 0.0 | 0.0 | 0.00 | 0.00 | 0.00 | 75 | 1020.8 |
| 20260903000503 | 25 | 150 | 0.0 | 0.0 | 0.00 | 0.00 | 0.00 | 75 | 1021.0 |
| 20260903000001 | 25 | 150 | 0.0 | 0.0 | 0.00 | 0.00 | 0.00 | 75 | 1020.5 |
| 20260902235455 | 25 | 325 | 0.0 | 0.0 | 0.00 | 0.00 | 0.00 | 75 | 1020.8 |
| 20260902234950 | 25 | 162 | 0.0 | 0.0 | 0.00 | 0.00 | 0.00 | 75 | 1020.8 |
| 20260902234445 | 25 | 245 | 0.0 | 0.0 | 0.00 | 0.00 | 0.00 | 73 | 1021.1 |
| 20260902233944 | 26 | 276 | 0.0 | 1.6 | 0.00 | 0.00 | 0.00 | 72 | 1021.2 |